This demonstration page uses our WeatherBlox Daily Observations layout. Learn more.

Left ArrowRight Arrow

Hourly Observations for September 19, 2018

Temp ( °F °C ) Dew Point ( °F °C ) Humidity (%) Winds ( mph kmh ) Pressure ( in mb ) Visibility ( mi km ) Precip ( " mm )
12:57 am 00:57 Clear 67 19.4 65 18.3 93 93 ESE 5 7 29.81 1010 10 16 0.00 0.00
1:57 am 01:57 Clear 66 18.9 65 18.3 96 96 ESE 5 7 29.81 1009 10 16 0.00 0.00
2:57 am 02:57 Clear 66 18.9 65 18.3 96 96 ESE 6 9 29.80 1009 10 16 0.00 0.00
3:57 am 03:57 Clear 66 18.9 65 18.3 96 96 SE 5 7 29.79 1009 10 16 0.00 0.00
4:57 am 04:57 Clear 67 19.4 64 17.8 91 91 S 3 6 29.78 1008 10 16 0.00 0.00
5:57 am 05:57 Clear 67 19.4 64 17.8 91 91 S 5 7 29.78 1009 10 16 0.00 0.00
6:57 am 06:57 Clear 67 19.4 65 18.3 93 93 S 6 9 29.79 1009 10 16 0.00 0.00
7:57 am 07:57 Sunny 68 20 65 18.3 90 90 SSE 5 7 29.80 1009 10 16 0.00 0.00
8:57 am 08:57 Sunny 73 22.8 67 19.4 81 81 SSE 10 17 29.79 1009 10 16 0.00 0.00
9:57 am 09:57 Sunny 79 26.1 68 20 69 69 S 13 20 29.79 1009 10 16 0.00 0.00
10:12 am 10:12 Mostly Sunny 81 27 68 20 66 66 SSW 12 19 29.74 1007 10 16 0.00 0.00
10:57 am 10:57 Sunny 82 27.8 68 20 63 63 S 14 22 29.79 1009 10 16 0.00 0.00
11:57 am 11:57 Sunny 87 30.6 68 20 53 53 S 18 30 29.78 1008 10 16 0.00 0.00
12:57 pm 12:57 Sunny 89 31.7 69 20.6 52 52 S 15 24 29.75 1008 10 16 0.00 0.00
1:57 pm 13:57 Sunny 91 32.8 68 20 47 47 S 20 31 29.73 1007 10 16 0.00 0.00
2:57 pm 14:57 Partly Cloudy 92 33.3 68 20 46 46 S 18 30 29.71 1006 10 16 0.00 0.00
3:57 pm 15:57 Mostly Cloudy 94 34.4 68 20 43 43 S 20 31 29.69 1006 10 16 0.00 0.00
4:57 pm 16:57 Mostly Sunny 92 33.3 67 19.4 44 44 SSE 20 31 29.68 1005 10 16 0.00 0.00
5:57 pm 17:57 Sunny 91 32.8 66 18.9 44 44 SSE 16 26 29.68 1005 10 16 0.00 0.00
6:57 pm 18:57 Sunny 88 31.1 66 18.9 48 48 SSE 13 20 29.69 1005 10 16 0.00 0.00
7:57 pm 19:57 Clear 83 28.3 64 17.8 53 53 SE 9 15 29.69 1005 10 16 0.00 0.00
8:57 pm 20:57 Clear 80 26.7 63 17.2 56 56 SSE 15 24 29.71 1006 10 16 0.00 0.00
9:57 pm 21:57 Partly Cloudy 79 26.1 64 17.8 60 60 SSE 15 24 29.72 1007 10 16 0.00 0.00
10:57 pm 22:57 Mostly Clear 78 25.6 64 17.8 62 62 SSE 15 24 29.72 1006 10 16 0.00 0.00
11:57 pm 23:57 Clear 77 25 64 17.8 64 64 SSE 17 28 29.70 1006 10 16 0.00 0.00

Powered by AerisWeather